This is the latest recevied weather packets stored in our database for station/object KU9TRY. If no packets are shown the sender has not sent any weather packets the latest 10 day(s).
| Time | Temp. | Humidity | Pressure | Rain* | Wind** | Luminosity | Snow |
|---|---|---|---|---|---|---|---|
| 1778251209 | 17.22° C | 47% | 1018.3 hPa | 0 mm | - | 754 W/m² | - |
| 1778250907 | 17.22° C | 51% | 1018.2 hPa | 0 mm | - | 736 W/m² | - |
| 1778250603 | 17.22° C | 59% | 1018.4 hPa | 0 mm | - | 720 W/m² | - |
| 1778250300 | 16.11° C | 59% | 1018.6 hPa | 0 mm | - | 700 W/m² | - |
| 1778249996 | 15.56° C | 63% | 1018.5 hPa | 0 mm | - | 681 W/m² | - |
| 1778249693 | 15.56° C | 66% | 1018.6 hPa | 0 mm | - | 658 W/m² | - |
| 1778249391 | 15° C | 67% | 1018.7 hPa | 0 mm | - | 632 W/m² | - |
| 1778249088 | 13.89° C | 68% | 1018.7 hPa | 0 mm | - | 610 W/m² | - |
| 1778248783 | 13.33° C | 72% | 1018.6 hPa | 0 mm | - | 589 W/m² | - |
| 1778248480 | 13.33° C | 77% | 1018.7 hPa | 0 mm | - | 570 W/m² | - |
| 1778248177 | 12.22° C | 78% | 1018.9 hPa | 0 mm | - | 81 W/m² | - |
| 1778247873 | 11.67° C | 78% | 1018.6 hPa | 0 mm | - | 65 W/m² | - |
| 1778247570 | 11.67° C | 82% | 1018.6 hPa | 0 mm | - | 56 W/m² | - |
| 1778247268 | 11.11° C | 84% | 1018.8 hPa | 0 mm | - | 55 W/m² | - |
| 1778246964 | 10.56° C | 84% | 1018.7 hPa | 0 mm | - | 55 W/m² | - |
| 1778246663 | 10° C | 84% | 1018.7 hPa | 0 mm | - | 57 W/m² | - |
| 1778246359 | 10° C | 86% | 1018.8 hPa | 0 mm | - | 51 W/m² | - |
| 1778246054 | 9.44° C | 86% | 1018.7 hPa | 0 mm | - | 50 W/m² | - |
| 1778245752 | 9.44° C | 89% | 1018.7 hPa | 0 mm | - | 49 W/m² | - |
| 1778245448 | 8.89° C | 88% | 1018.6 hPa | 0 mm | - | 48 W/m² | - |
| 1778245144 | 8.33° C | 90% | 1018.6 hPa | 0 mm | - | 47 W/m² | - |
| 1778244840 | 7.78° C | 91% | 1018.5 hPa | 0 mm | - | 46 W/m² | - |
| 1778244538 | 7.78° C | 93% | 1018.7 hPa | 0 mm | - | 45 W/m² | - |
| 1778244236 | 7.22° C | 94% | 1018.5 hPa | 0 mm | - | 45 W/m² | - |
| 1778243934 | 7.22° C | 93% | 1018.6 hPa | 0 mm | - | 44 W/m² | - |
* Rain latest hour (hover to see other rain measurements)
** Current wind speed in m/s (hover to see current wind gust speed)